1360022433379,97.2019
1360022493379,97.4364
1360022553379,97.3255
1360022613380,97.2059
1360022673380,97.3412
1360022733380,97.9718
1360022793380,97.5036
1360022853379,97.4029
1360022913380,97.3697
1360022973380,97.5137
1360023033380,97.4826
1360023093380,97.3766
1360023153380,97.1637
1360023213380,97.4356
1360023273380,97.7251
1360023333380,97.3938
1360023393380,97.2637
1360023453380,97.6039
1360023513380,97.7683
1360023573379,97.4356
1360023633379,97.3602
1360023693379,97.7305
1360023753379,96.9829
1360023813379,97.2217
1360023873379,97.2322
1360023933380,97.3278
1360023993380,98.1059
1360024053380,97.6398
1360024113380,97.7925
1360024173380,97.5843
1360024233379,97.0865
1360024293380,97.6094
1360024353380,97.5282
1360024413380,97.6816
1360024473380,98.0276
1360024533380,97.6548
1360024593380,97.4392
1360024653380,97.8677
1360024713380,97.3955
1360024773380,98.4117
1360024833380,97.3707
1360024893379,97.4944
1360024953379,97.2276
1360025013379,97.8654
1360025073379,97.7844
1360025133379,97.5212
1360025193379,97.7215
1360025253379,98.1600
1360025313380,97.4197
1360025373380,97.8247
1360025433380,97.3730
1360025493380,98.4214
1360025553379,97.6435
1360025613380,97.7076
1360025673380,98.0287
1360025733380,97.7881
1360025793380,97.8783
1360025853380,97.7800
1360025913380,97.8454
1360025973380,97.4940
1360026033390,97.8989
1360026093390,98.1005
1360026153390,97.7851
1360026213390,97.9675
1360026273390,97.7972
1360026333390,98.1115
1360026393390,98.1747
1360026453390,97.4376
1360026513390,98.7183
1360026573390,98.0518
1360026633390,98.0954
1360026693390,97.8466
1360026753390,98.2676
1360026813390,98.0846
1360026873390,98.6712
1360026933390,98.1588
1360026993390,98.0164
1360027053390,97.5703
1360027113390,98.2522
1360027173390,98.0210
1360027233390,98.3180
1360027293390,98.0351
1360027353390,98.3568
1360027413390,98.4591
1360027473390,98.1689
1360027533390,98.2191
1360027593390,97.9764
1360027653390,98.3111
1360027713390,98.6239
1360027773390,98.0368
1360027833390,98.2694
1360027893390,98.1759
1360027953390,98.4765
1360028013390,98.0878
1360028073390,98.3968
1360028133390,98.5939
1360028193390,98.6173
1360028253390,98.9564
1360028313390,98.8712
1360028373390,98.3664
1360028433390,98.1670
1360028493390,98.6702
1360028553390,98.4820
1360028613390,98.7293
1360028673390,98.9219
1360028733390,98.5324
1360028793390,99.0714
1360028853390,98.6143
1360028913390,98.5980
1360028973390,99.0074
1360029033390,99.1647
1360029093390,98.5677
1360029153390,98.8666
1360029213390,98.6738
1360029273390,98.7950
1360029333390,99.2193
1360029393390,98.9656
1360029453390,98.9155
1360029513390,98.6572
1360029573390,98.8705
1360029633400,99.4622
1360029693400,98.9049
1360029753400,99.2904
1360029813400,99.3418
1360029873400,99.4314
1360029933400,99.0219
1360029993400,99.1920
1360030053400,99.8008
1360030113400,99.1629
1360030173400,98.6870
1360030233400,98.9796
1360030293400,99.4105
1360030353400,98.9402
1360030413400,99.5750
1360030473400,99.0791
1360030533400,99.3861
1360030593400,99.4096
1360030653400,98.8205
1360030713400,99.7785
1360030773400,99.3078
1360030833400,99.0186
1360030893400,99.2908
1360030953400,99.2383
1360031013400,99.4112
1360031073400,99.3089
1360031133400,99.3507
1360031193400,99.7318
1360031253400,99.1494
1360031313400,99.3249
1360031373400,99.2973
1360031433400,99.5529
1360031493400,99.5628
1360031553400,99.6858
1360031613400,99.1205
1360031673400,99.3094
1360031733400,99.3899
1360031793400,99.6856
1360031853400,99.6585
1360031913400,99.1280
1360031973400,99.1937
1360032033400,99.5085
1360032093400,100.249
1360032153400,99.4474
1360032213400,99.6270
1360032273400,99.2929
1360032333400,99.3209
1360032393400,99.1370
1360032453400,99.5008
1360032513400,98.9367
1360032573400,99.1936
1360032633400,99.4499
1360032693400,99.8104
1360032753400,99.2593
1360032813400,99.2117
1360032873400,99.3841
1360032933400,99.3754
1360032993400,99.6164
1360033053400,99.5494
1360033113400,99.7008
1360033173400,99.2798
1360033233411,99.5765
1360033293411,99.3821
1360033353411,98.9077
1360033413411,99.5755
1360033473411,99.4022
1360033533411,99.1735
1360033593411,99.6130
1360033653411,99.0301
1360033713411,99.0094
1360033773411,99.2735
1360033833411,99.3964
1360033893411,99.1101
1360034433411,99.4773
1360034493411,99.1254
1360034553411,99.4268
1360034613411,99.6970
1360034673411,99.5652
1360034733411,99.6890
1360034793411,99.5762
1360034853411,99.4226
1360034913411,99.8173
1360034973411,99.7423
1360035033411,99.4507
1360035093411,99.8268
1360035153411,99.6236
1360035213411,100.161
1360035273411,99.7445
1360035333411,99.4560
1360035393411,99.7884
1360035453411,100.211
1360035513411,99.8845
1360035573411,99.6282
1360035633411,99.9887
1360035693411,100.030
1360035753411,99.5884
1360035813411,100.034
1360035873411,99.8631
1360035933411,100.239
1360035993411,99.9425
1360036053411,100.258
1360036113411,99.7434
1360036173411,99.5870
1360036233411,100.241
1360036293411,99.8835
1360036353411,100.251
1360036413411,100.024
1360036473411,99.8220
1360036533411,99.9533
1360036593411,100.096
1360036653411,100.007
1360036713411,99.8191
1360036773411,99.8387
1360036833422,100.085
1360036893422,99.4844
1360036953422,100.010
1360037013422,100.096
1360037073422,99.6063
1360037133422,100.304
1360037193422,100.264
1360037253422,99.8924
1360037313422,99.7981
1360037373422,99.7579
1360037433422,99.6719
1360037493422,99.5823
1360037553422,100.374
1360037613422,99.8544
1360037673422,99.9947
1360037733422,99.4749
1360037793422,100.057
1360037853422,99.6099
1360037913422,99.9734
1360037973422,100.016
1360038033422,101.856
1360038093422,100.133
1360038153422,99.5237
1360038213422,99.7124
1360038273422,100.086
1360038333422,100.052
1360038393422,99.6611
1360038453422,99.6802
1360038513422,99.8993
1360038573422,99.8693
1360038633422,100.069
1360038693422,99.9184
1360038753422,99.8715
1360038813422,99.8272
1360038873422,99.4408
1360038933422,100.203
1360038993422,99.7037
1360039053422,99.6179
1360039113422,99.7317
1360039173422,99.7896
1360039233422,99.6108
1360039293422,99.4673
1360039353422,99.8726
1360039413422,99.8475
1360039473422,99.8352
1360039533422,100.097
1360039593422,99.6125
1360039653422,100.007
1360039713422,100.160
1360039773422,100.093
1360039833422,99.9122
1360039893422,99.8896
1360039953422,100.194
1360040013422,99.8678
1360040073422,99.7545
1360040133422,99.9722
1360040193422,100.177
1360040253422,99.9498
1360040313422,99.9821
1360040373422,100.130
1360040433432,99.8687
1360040493432,100.031
1360040553432,99.8863
1360040613432,100.310
1360040673432,99.6553
1360040733432,99.6606
1360040793433,99.3940
1360040853432,99.9079
1360040913432,99.6052
1360040973432,99.7852
1360041033432,99.3783
1360041093432,99.9177
1360041153433,99.7008
1360041213433,99.3748
1360041273433,99.6850
1360041333433,99.5437
1360041393433,99.4741
1360041453433,99.2205
1360041513433,99.6959
1360041573432,99.7303
1360041633432,99.5663
1360041693432,99.4311
1360041753432,99.2904
1360041813432,99.4923
1360041873432,99.1310
1360041933432,98.9509
1360041993432,99.3015
1360042053432,99.4623
1360042113432,99.3270
1360042173433,98.8875
1360042233432,99.0847
1360042293432,99.1456
1360042353432,99.0597
1360042413432,99.1232
1360042473433,99.1438
1360042533433,98.7564
1360042593433,98.6123
1360042653433,98.7907
1360042713433,98.9572
1360042773433,99.5977
1360042833433,99.0344
1360042893432,98.8720
1360042953432,99.0345
1360043013432,98.6228
1360043073432,99.0599
1360043133432,98.7441
1360043193432,98.9401
1360043253432,98.7199
1360043313432,98.9488
1360043373432,98.8118
1360043433432,98.4845
1360043493433,98.5510
1360043553432,99.1179
1360043613432,99.0514
1360043673432,98.9452
1360043733432,98.9128
1360043793432,98.6717
1360043853433,98.8638
1360043913433,98.4875
1360043973433,98.7133
1360044033443,98.7632
1360044093443,98.5453
1360044153443,98.5606
1360044213443,99.1047
1360044273443,98.0114
1360044333443,98.8198
1360044393444,98.5778
1360044453444,98.7667
1360044513444,98.6087
1360044573444,98.5132
1360044633443,98.5449
1360044693443,99.3787
1360044753443,99.2637
1360044813443,99.2993
1360044873443,99.3660
1360044933443,98.2295
1360044993443,99.3029
1360045053443,98.6854
1360045113443,98.7364
1360045173443,98.4305
1360045233443,98.9193
1360045293443,98.6808
1360045353443,98.5349
1360045413443,98.8037
1360045473443,98.5767
1360045533443,98.8146
1360045593443,98.6032
1360045653443,98.4343
1360045713444,98.8991
1360045773444,98.3151
1360045833444,98.8665
1360045893444,98.5404
1360045953444,98.6346
1360046013443,98.9997
1360046073443,98.5449
1360046133443,98.4327
1360046193443,98.6309
1360046253443,98.2179
1360046313443,99.0349
1360046373443,98.6176
1360046433443,98.7215
1360046493443,98.6453
1360046553443,98.5713
1360046613443,98.7688
1360046673443,98.3436
1360046733443,98.7286
1360046793443,98.3248
1360046853443,98.0364
1360046913443,98.5984
1360046973443,98.6765
1360047033443,98.5817
1360047093444,98.1606
1360047153444,98.3653
1360047213444,98.8531
1360047273444,98.7203
1360047333443,98.4702
1360047393443,98.9667
1360047453443,98.5805
1360047513443,98.7743
1360047573443,98.8533
1360047633455,98.5407
1360047693455,98.4720
1360047753455,98.1731
1360047813455,98.5601
1360047873455,98.4490
1360047933455,98.6338
1360047993455,98.3325
1360048053455,98.2639
1360048113455,98.7339
1360048173455,98.3883
1360048233455,98.4756
1360048293455,98.1430
1360048353455,98.6703
1360048413455,98.4781
1360048473455,98.3576
1360048533455,98.6696
1360048593455,98.3458
1360048653455,98.4741
1360048713455,98.0913
1360048773455,98.2667
1360048833455,98.4843
1360048893455,97.9319
1360048953455,98.1979
1360049013455,98.2231
1360049073455,98.3187
1360049133455,98.3348
1360049193455,98.1370
1360049253455,98.6666
1360049313455,97.7514
1360049373455,97.4219
1360049433455,98.1204
1360049493455,97.7990
1360049553455,97.9412
1360049613455,98.0905
1360049673455,97.5996
1360049733455,97.9626
1360049793455,97.3063
1360049853455,97.6771
1360049913455,98.0549
1360049973455,98.3002
1360050033455,97.8859
1360050093455,97.7893
1360050153455,98.3265
1360050213455,98.0627
1360050273455,97.8427
1360050333455,97.1724
1360050393455,97.7753
1360050453455,97.3185
1360050513455,97.7647
1360050573455,98.0488
1360050633455,97.2134
1360050693455,96.9598
1360050753455,97.3612
1360050813455,97.5279
1360050873455,97.9156
1360050933455,97.2776
1360050993455,97.0802
1360051053455,97.3624
1360051113455,97.3012
1360051173455,97.3877
1360051233466,97.4604
1360051293466,97.2772
1360051353466,97.2557
1360051413466,97.3261
1360051473466,97.1028
1360051533466,97.1336
1360051593466,97.3833
1360051653466,97.5619
1360051713466,97.4657
1360051773466,96.6883
1360051833466,97.2299
1360051893466,96.8521
1360051953466,97.1878
1360052013466,97.3077
1360052073466,97.6111
1360052133466,97.8127
1360052193466,97.7657
1360052253466,97.8311
1360052313466,98.1084
1360052373466,97.6483
1360052433466,97.4372
1360052493466,97.5292
1360052553466,97.3955
1360052613466,97.3923
1360052673466,97.8991
1360052733466,97.6020
1360052793466,97.1297
1360052853466,97.0434
1360052913466,97.2632
1360052973466,97.1348
1360053033466,96.7484
1360053093466,96.2662
1360053153466,96.8001
1360053213466,96.1616
1360053273466,96.1877
1360053333466,96.4274
1360053393466,96.1868
1360053453466,96.6049
1360053513466,96.3025
1360053573466,96.1313
1360053633466,96.2472
1360053693466,96.3926
1360053753466,95.8833
1360053813466,96.1366
1360053873466,95.7306
1360053933466,95.4848
1360053993466,95.8679
1360054053466,95.7197
1360054113466,95.5968
1360054173466,95.8466
1360054233466,95.4276
1360054293466,95.3396
1360054353466,95.4776
1360054413466,95.6603
1360054473466,95.4652
1360054533466,95.2027
1360054593466,95.3453
1360054653466,95.3258
1360054713466,95.1289
1360054773466,95.5133
1360054833477,95.2862
1360054893477,95.1719
1360054953477,95.5452
1360055013477,95.2451
1360055073477,95.3478
1360055133477,95.3332
1360055193477,94.9213
1360055253477,95.8227
1360055313477,95.6304
1360055373477,95.6027
1360055433477,95.2580
1360055493477,95.3000
1360055553477,95.5506
1360055613477,95.2061
1360055673477,95.3225
1360055733477,95.6761
1360055793477,95.0697
1360055853477,94.7984
1360055913477,95.5474
1360055973477,94.9846
1360056033477,95.2866
1360056093477,94.9007
1360056153477,95.3061
1360056213477,95.1182
1360056273477,94.8881
1360056333477,95.0971
1360056393477,94.6172
1360056453477,94.8290
1360056513477,94.7216
1360056573477,94.7655
1360056633477,94.4607
1360056693477,95.2587
1360056753477,94.8740
1360056813477,94.2817
1360056873477,94.6244
1360056933477,94.8406
1360056993477,95.0745
1360057053477,94.7982
1360057113477,94.5311
1360057173477,94.5519
1360057233477,94.4653
1360057293477,95.1056
1360057353477,94.8558
1360057413477,94.6097
1360057473477,94.5027
1360057533477,94.9837
1360057593477,94.3797
1360057653477,94.1633
1360057713477,94.5467
1360057773477,94.6114
1360057833477,94.4130
1360057893477,94.8939
1360057953477,94.8507
1360058013477,94.9913
1360058073477,94.7838
1360058133477,94.2427
1360058193477,94.6355
1360058253477,94.6063
1360058313477,94.5710
1360058373477,94.7929
1360058433488,94.6554
1360058493488,94.6405
1360058553488,94.6792
1360058613488,94.4391
1360058673488,94.3084
1360058733488,94.9125
1360058793488,94.6023
1360058853488,94.3530
1360058913488,94.8363
1360058973488,94.2713
1360059033488,94.5623
1360059093488,94.4358
1360059153488,94.4573
1360059213488,94.4166
1360059273488,94.3645
1360059333488,94.2909
1360059393488,94.3660
1360059453488,94.6001
1360059513488,94.3904
1360059573488,94.1201
1360059633488,94.5698
1360059693488,94.8006
1360059753488,94.2319
1360059813488,94.6828
1360059873488,94.1206
1360059933488,94.3169
1360059993488,94.0274
1360060053488,94.4127
1360060113488,94.4974
1360060173488,94.6047
1360060233488,94.5916
1360060293488,94.4486
1360060353488,94.3426
1360060413488,94.6653
1360060473488,94.2430
1360060533488,94.3010
1360060593488,94.3727
1360060653488,94.2904
1360060713488,94.0009
1360060773488,94.1427
1360060833488,93.7170
1360060893488,93.9855
1360060953488,94.0050
1360061013488,93.6607
1360061073488,93.8549
1360061133488,93.8585
1360061193488,93.5184
1360061253488,93.1040
1360061313488,94.0947
1360061373488,94.2306
1360061433488,94.0181
1360061493488,93.8385
1360061553488,93.3773
1360061613488,94.0277
1360061673488,93.4856
1360061733488,94.0262
1360061793488,94.2397
1360061853488,93.8242
1360061913488,93.3850
1360061973488,93.7014
1360062033500,93.8512
1360062093500,93.7114
1360062153500,93.6893
1360062213500,93.7183
1360062273500,94.0793
1360062333500,93.4524
1360062393500,93.2633
1360062453500,93.9290
1360062513500,93.2403
1360062573500,93.3241
1360062633500,94.1616
1360062693500,93.2805
1360062753500,93.5210
1360062813500,93.5911
1360062873500,93.3453
1360062933500,93.7301
1360062993500,93.2149
1360063053500,93.4966
1360063113500,93.5961
1360063173500,92.9375
1360063233500,93.4282
1360063293500,93.5835
1360063353500,93.5748
1360063413500,93.3964
1360063473500,93.6604
1360063533500,93.5073
1360063593500,93.2650
1360063653500,93.2629
1360063713500,93.6722
1360063773500,93.0810
1360063833500,93.1315
1360063893500,93.0638
1360063953500,93.6046
1360064013500,93.4203
1360064073500,93.2711
1360064133500,93.4283
1360064193500,93.1741
1360064253500,93.5693
1360064313500,93.5090
1360064373500,93.2192
1360064433500,93.4086
1360064493500,93.3490
1360064553500,93.7543
1360064613500,93.2927
1360064673500,93.4748
1360064733500,93.5062
1360064793500,93.1606
1360064853500,93.7434
1360064913500,93.2522
1360064973500,93.0685
1360065033500,93.4454
1360065093500,93.4541
1360065153500,93.4988
1360065213500,92.9880
1360065273500,93.6453
1360065333500,93.5434
1360065393500,93.2389
1360065453500,93.7347
1360065513500,92.9484
1360065573500,93.2910
1360065633511,93.5506
1360065693511,93.5703
1360065753511,93.5195
1360065813511,93.3907
1360065873511,93.6114
1360065933511,93.4567
1360065993511,93.6676
1360066053511,93.8974
1360066113511,93.5988
1360066173511,93.5846
1360066233511,93.7545
1360066293511,93.8035
1360066353511,93.2138
1360066413511,93.6009
1360066473511,93.5941
1360066533511,93.4271
1360066593511,93.5955
1360066653511,93.1180
1360066713511,93.5024
1360066773511,93.4897
1360066833511,93.4957
1360066893511,93.9208
1360066953511,93.3841
1360067013511,93.4143
1360067073511,92.9782
1360067133511,93.2884
1360067193511,93.5710
1360067253511,93.1892
1360067313511,93.4631
1360067373511,93.2972
1360067433511,93.1966
1360067493511,92.9927
1360067553511,93.5148
1360067613511,93.1659
1360067673511,93.3775
1360067733511,92.8645
1360067793511,93.2027
1360067853511,93.3961
1360067913511,92.9757
1360067973511,93.1886
1360068033511,92.9279
1360068093511,92.8346
1360068153511,93.2884
1360068213511,93.4382
1360068273511,93.2448
1360068333511,93.1806
1360068393511,93.0329
1360068453511,93.2997
1360068513511,93.0684
1360068573511,93.1990
1360068633511,93.0507
1360068693511,92.8120
1360068753511,92.8556
1360068813511,93.0095
1360068873511,93.4430
1360068933511,93.1447
1360068993511,92.9720
1360069053511,92.9837
1360069113511,93.5516
1360069173511,93.7493
1360069233522,92.8627
1360069293522,93.0106
1360069353522,93.3211
1360069413522,93.0957
1360069473522,93.1961
1360069533522,92.9699
1360069593522,93.0743
1360069653522,93.4814
1360069713522,92.8207
1360069773522,92.7799
1360069833522,93.2402
1360069893522,92.8644
1360069953522,93.0008
1360070013522,93.1396
1360070073522,93.2064
1360070133522,93.1129
1360070193522,92.9698
1360070253522,93.1943
1360070313522,93.4047
1360070373522,92.7784
1360070433522,92.6070
1360070493522,92.6458
1360070553522,93.3005
1360070613522,92.9111
1360070673522,93.4329
1360070733522,92.7877
1360070793522,93.4166
1360070853522,92.5968
1360070913522,93.3010
1360070973522,93.3622
1360071033522,92.7154
1360071093522,92.6658
1360071153522,92.8794
1360071213522,92.6775
1360071273522,92.9676
1360071333522,93.0362
1360071393522,93.0918
1360071453522,93.6152
1360071513522,92.9483
1360071573522,92.8153
1360071633522,93.0109
1360071693522,92.9609
1360071753522,92.5900
1360071813522,92.8624
1360071873522,93.0694
1360071933522,93.1934
1360071993522,92.7770
1360072053522,92.5299
1360072113522,92.4155
1360072173522,93.0217
1360072233522,93.1611
1360072293522,92.7778
1360072353522,92.8020
1360072413522,93.1846
1360072473522,93.0831
1360072533522,93.0291
1360072593522,93.6411
1360072653522,93.4335
1360072713522,93.0207
1360072773522,93.2577
1360072833534,92.7639
1360072893534,92.8970
1360072953534,93.2993
1360073013534,93.1758
1360073073534,93.0186
1360073133534,92.9891
1360073193534,93.0436
1360073253534,93.0651
1360073313534,93.1367
1360073373534,93.5908
1360073433534,93.1902
1360073493534,93.0207
1360073553534,93.5360
1360073613534,92.6701
1360073673534,93.3398
1360073733534,92.6382
1360073793534,92.8517
1360073853534,92.8488
1360073913534,92.9238
1360073973534,93.0661
1360074033534,92.7615
1360074093534,92.9893
1360074153534,93.2133
1360074213534,93.1069
1360074273534,93.0352
1360074333534,93.7796
1360074393534,92.9388
1360074453534,92.9672
1360074513534,92.8299
1360074573534,93.2162
1360074633534,93.3050
1360074693534,93.1375
1360074753534,93.0284
1360074813534,92.9437
1360074873534,92.9021
1360074933534,93.4407
1360074993534,93.7585
1360075053534,93.1819
1360075113534,93.1544
1360075173534,92.7474
1360075233534,93.0292
1360075293534,93.0565
1360075353534,93.2369
1360075413534,92.5663
1360075473534,93.2360
1360075533534,93.5343
1360075593534,92.8372
1360075653534,93.0229
1360075713534,92.8995
1360075773534,93.3170
1360075833534,93.2261
1360075893534,93.2754
1360075953534,93.1002
1360076013534,93.0562
1360076073534,93.0354
1360076133534,92.8643
1360076193534,93.1750
1360076253534,93.3220
1360076313534,93.0549
1360076373534,93.2456
1360076433545,93.3519
1360076493545,93.3625
1360076553545,93.1477
1360076613545,93.0693
1360076673545,93.1687
1360076733545,92.8654
1360076793545,93.1087
1360076853545,93.1357
1360076913545,93.5703
1360076973545,93.0610
1360077033545,94.7383
1360077093545,92.9383
1360077153545,93.3259
1360077213545,92.8756
1360077273545,92.7952
1360077333545,92.8616
1360077393545,93.1525
1360077453545,93.0963
1360077513545,93.1057
1360077573545,93.0816
1360077633545,93.1970
1360077693545,92.6179
1360077753545,93.1542
1360077813545,93.3224
1360077873545,93.0307
1360077933545,93.1540
1360077993545,93.3012
1360078053545,93.3986
1360078113545,93.4400
1360078173545,92.9523
1360078233545,93.3363
1360078293545,92.8482
1360078353545,93.4681
1360078413545,93.2293
1360078473545,93.0593
1360078533545,93.6302
1360078593545,93.6030
1360078653545,93.2574
1360078713545,92.8637
1360078773545,92.9947
1360078833545,93.1294
1360078893545,93.3602
1360078953545,93.4885
1360079013545,93.0203
1360079073545,92.7542
1360079133545,93.1227
1360079193545,93.3871
1360079253545,93.0063
1360079313545,92.9967
1360079373545,93.2255
1360079433545,93.5030
1360079493545,93.4442
1360079553545,93.2548
1360079613545,92.9167
1360079673545,93.3338
1360079733545,93.7214
1360079793545,93.7166
1360079853545,93.4015
1360079913545,92.9435
1360079973545,93.0269
1360080033556,93.2897
1360080093556,93.3574
1360080153556,93.4441
1360080213556,92.9510
1360080273556,93.2479
1360080333556,93.2460
1360080393556,93.0060
1360080453556,93.3064
1360080513556,93.4379
1360080573556,92.9776
1360080633556,93.1103
1360080693556,92.7875
1360080753556,92.8532
1360080813556,92.9960
1360080873556,92.9197
1360080933556,93.1744
1360080993556,93.1077
1360081053556,93.2031
1360081113556,93.0221
1360081173556,93.0574
1360081233556,92.7481
1360081293556,92.7869
1360081353556,93.0997
1360081413556,93.4837
1360081473556,93.5747
1360081533556,93.2481
1360081593556,93.0786
1360081653556,93.3587
1360081713556,93.3443
1360081773556,93.0204
1360081833556,93.0911
1360081893556,93.3515
1360081953556,93.0665
1360082013556,93.5324
1360082073556,93.1957
1360082133556,93.1888
1360082193556,93.1781
1360082253556,92.8665
1360082313556,93.3708
1360082373556,93.0140
1360082433556,93.1683
1360082493556,93.3241
1360082553556,92.8075
1360082613556,92.8429
1360082673556,92.8609
1360082733556,93.3345
1360082793556,93.1071
1360082853556,93.0952
1360082913556,92.7225
1360082973556,92.9735
1360083033556,93.1982
1360083093556,92.8805
1360083153556,93.2963
1360083213556,93.0638
1360083273556,92.9604
1360083333556,93.0998
1360083393556,92.3715
1360083453556,92.7700
1360083513556,93.0332
1360083573556,93.2366
1360083633567,93.1037
1360083693567,93.0929
1360083753567,93.3946
1360083813567,93.4536
1360083873567,92.8330
1360083933567,93.0225
1360083993567,93.4830
1360084053567,93.2107
1360084113567,93.1744
1360084173567,93.0075
1360084233567,92.8088
1360084293567,92.8839
1360084353567,92.9203
1360084413567,92.9130
1360084473567,93.1734
1360084533567,93.3723
1360084593567,93.1663
1360084653567,92.8314
1360084713567,93.0843
1360084773567,93.2281
1360084833567,93.0761
1360084893567,92.8976
1360084953567,92.9843
1360085013567,93.6263
1360085073567,92.8431
1360085133567,92.9930
1360085193567,93.0491
1360085253567,93.0735
1360085313567,92.7672
1360085373567,93.4322
1360085433567,92.7619
1360085493567,92.9605
1360085553567,92.8967
1360085613567,93.2956
1360085673567,93.2707
1360085733567,92.8885
1360085793567,93.1064
1360085853567,93.3901
1360085913567,92.9796
1360085973567,92.6381
1360086033567,92.9680
1360086093567,92.9326
1360086153567,92.9725
1360086213567,93.0563
1360086273567,93.6801
1360086333567,92.8544
1360086393567,93.9647
1360086453567,93.5754
1360086513567,93.2739
1360086573567,92.9966
1360086633567,93.1173
1360086693567,92.9021
1360086753567,93.6090
1360086813567,92.9320
1360086873567,93.1158
1360086933567,93.5013
1360086993567,93.4228
1360087053567,93.3757
1360087113567,93.5020
1360087173567,93.2808
1360087233577,93.2778
1360087293577,93.5932
1360087353577,93.2602
1360087413577,93.3071
1360087473577,93.8425
1360087533577,93.4012
1360087593577,93.2254
1360087653577,93.3425
1360087713577,93.4720
1360087773577,93.8822
1360087833577,93.8521
1360087893577,94.0797
1360087953577,93.7493
1360088013577,93.9160
1360088073577,94.0371
1360088133577,93.8544
1360088193577,93.9243
1360088253577,93.9834